Flag Weather past 2 weeks in Cardiff, Wales, United Kingdom

Now
63 °F

Broken clouds.


Feels Like: 63 °F
Forecast: 59 / 64 °F
Wind: 9 mph from South

Location: Wales Airport

Current Time: Oct 30, 2014 at 1:48:20 PM

Latest Report: Oct 30, 2014 at 1:20 PM


Visibility: 5 mi

Pressure: 30.01 "Hg

Humidity: 94%

Dew point: 61 °F

Location of CardiffLocation

Historic Weather in Cardiff — Graph

°F

Cardiff temperature yesterday

Maximum temperature yesterday: 59 °F (at 12:20 AM)
Minimum temperature yesterday: 50 °F (at 5:20 AM)
Average temperature yesterday: 52 °F

Past Weeks' High & Low Weather Summary

 TemperatureHumidityPressure
High64 °F (Oct 18, 6:50 AM)100% (Oct 15, 1:50 PM)30.33 "Hg (Oct 15, 1:50 PM)
Low46 °F (Oct 21, 11:50 PM)58% (Oct 21, 3:50 PM)29.47 "Hg (Oct 16, 12:50 AM)
Average57 °F87%29.92 "Hg
* Reported Oct 15 1:20 PM — Oct 30 12:20 PM, Cardiff, Weather by CustomWeather, © 2014

Note: Actual official high and low records may vary slightly from our data, if they occured in-between our weather recording intervals... More about our weather records

Advertising

Cardiff weather history for previous 24 hours

 ConditionsComfort  
Time TempWeatherWind HumidityBarometerVisibility
12:20 PM
Oct 30
63 °FOvercast.9 mph94%30.01 "HgN/A
11:50 AM61 °FMore clouds than sun.8 mph94%30.04 "HgN/A
11:20 AM61 °FOvercast.7 mph94%30.04 "HgN/A
10:50 AM61 °FOvercast.8 mph94%30.04 "HgN/A
10:20 AM61 °FOvercast.8 mph94%30.01 "HgN/A
9:50 AM61 °FMore clouds than sun.6 mph94%30.01 "Hg6 mi
9:20 AM59 °FMore clouds than sun.7 mph100%30.01 "Hg6 mi
8:50 AM59 °FOvercast.8 mph100%30.01 "Hg5 mi
8:20 AM59 °FOvercast.6 mph94%30.01 "HgN/A
7:50 AM59 °FMostly cloudy.5 mph94%30.01 "HgN/A
7:20 AM59 °FOvercast.5 mph94%30.01 "Hg6 mi
6:50 AM59 °FMostly cloudy.7 mph94%29.98 "HgN/A
6:20 AM59 °FMostly cloudy.7 mph94%29.98 "Hg4 mi
5:50 AM59 °FMostly cloudy.6 mph94%29.98 "Hg4 mi
5:20 AM59 °FFog.8 mph100%29.98 "Hg2 mi
4:50 AM59 °FFog.7 mph100%29.98 "Hg2 mi
4:20 AM59 °FFog.8 mph100%29.98 "Hg2 mi
3:50 AM59 °FFog.8 mph100%29.98 "Hg2 mi
3:20 AM57 °FFog.7 mph100%29.98 "Hg2 mi
2:50 AM57 °FFog.7 mph100%29.98 "Hg1 mi
2:20 AM57 °FFog.7 mph100%29.98 "Hg1 mi
1:50 AM57 °FFog.9 mph100%29.98 "Hg1 mi
1:20 AM57 °FFog.7 mph94%29.98 "Hg1 mi
12:50 AM55 °FFog.9 mph100%29.98 "Hg1 mi
12:20 AM55 °FFog.8 mph100%29.98 "Hg1 mi
11:50 PM
Oct 29
55 °FFog.8 mph100%29.98 "Hg1 mi
11:20 PM55 °FFog.7 mph94%29.98 "Hg1 mi
10:50 PM55 °FFog.9 mph100%29.98 "Hg0 mi
10:20 PM54 °FFog.9 mph100%29.98 "Hg0 mi
9:50 PM54 °FFog.7 mph100%29.98 "Hg0 mi
9:20 PM52 °FFog.9 mph100%29.98 "Hg0 mi
8:50 PM52 °FFog.8 mph100%30.01 "Hg0 mi
8:20 PM52 °FFog.9 mph100%30.01 "Hg0 mi
7:50 PM52 °FFog.8 mph100%30.01 "Hg1 mi
7:20 PM52 °FFog.9 mph100%30.01 "Hg1 mi
6:50 PM52 °FFog.10 mph94%30.01 "Hg1 mi
6:20 PM52 °FFog.10 mph94%30.01 "Hg1 mi
5:50 PM50 °FFog.10 mph100%30.01 "Hg2 mi
5:20 PM50 °FFog.9 mph100%30.01 "Hg2 mi
4:50 PM50 °FLight rain. Low clouds.12 mph100%29.98 "Hg2 mi
4:20 PM50 °FLow clouds.10 mph100%29.98 "Hg4 mi
3:50 PM50 °FLight rain. Low clouds.10 mph100%29.98 "Hg4 mi
3:20 PM50 °FLow clouds.10 mph100%29.98 "HgN/A
2:50 PM50 °FLow clouds.12 mph94%29.98 "HgN/A
2:20 PM50 °FLow clouds.10 mph94%29.98 "HgN/A
1:50 PM52 °FLow clouds.12 mph88%30.01 "HgN/A
1:20 PM50 °FLow clouds.12 mph94%30.01 "HgN/A
Weather by CustomWeather, © 2014

See weather overviewHow to use our weather pages